ATLAS 5 CENTAUR DEB, 43998

Orbit data source: Space-Track

ATLAS 5 CENTAUR DEB, 43998 is space debris in HEO originally from a launch on Wed, 17 Sep 2014 UTC launched from the Air Force Eastern Test Range (AFETR). Debris objects in space refer to the collection of defunct objects orbiting the Earth. Examples of debris include non-operational satellites, rocket bodies, and fragments generated from explosions, collisions, or faulty payload assembly.

Loading next visibility...
Identifier
43998, 2014-055BD
Orbit
HEO
Country
Flag of USUS
Related business
Flag of USUnited Launch Alliance/Lockheed Martin (US)
Manufacturer
Unknown
Mission
Spacecraft
Bus & Motor
Unknown
Mass
Unknown
Launch date (UTC)
2014-09-17 (12 years ago)
Launch vehicle
Unknown
Launch site
Air Force Eastern Test Range (AFETR)
Object type
Payload
Rocket body
Debris
Shape & HBR
Unknown shape, 1.1 m
Radar Cross Section
Medium (>0.1 m² and <1 m²)

Expand to show TLE details & history
Last TLE update: 6 days ago

TLE from 6 days ago
0 ATLAS 5 CENTAUR DEB
1 43998U 14055BD  26167.12840455 -.00000091  00000-0  00000-0 0  9990
2 43998  20.4240 131.6246 5062037 188.7714 157.1426  1.83523282 51308
Epoch: 2026-06-16T03:04Z
TLE epoch observation values (Epoch: 2026-06-16T03:04:54.153Z)
Latitude
-0.00001°
Longitude
-179.06073°
Altitude
35,566.282 km
Speed
2.205 km/s
True Right ascension
08h 46m 16s
True Declination
0° 00' 00"
Sunlit
Object was in daylight at epoch
Visualization orbit readout
Latitude
Unknown
Longitude
Unknown
Altitude
Unknown
Speed
Unknown
Apparent Right ascension
Unknown
Apparent Declination
Unknown
Sunlit
N/A
Visualization observer readout
Local Sidereal Time
21:47:49
Azimuth
Unknown
Elevation
Unknown
Doppler factor
Unknown
Orbital elements
Apogee altitude
36,069.716 km
Perigee altitude
7,538.037 km
Semi-major axis
28,182.014 km
Eccentricity
0.5062
Inclination
20.424°
RAAN
131.6246°
Arg. of periapsis
188.7714°
True anomaly
171.24179°
Mean anomaly
157.1426°
Eccentric anomaly
164.76437°
Mean motion
0.45876 °/min
Orbital period
784.72 mins
BSTAR
0
Loading maneuver chart data...
Computing Atmospheric mass density...

Documentation

Showing up to 5 results
|